Find MEXICO-OSCAR-30

NORAD ID: 24305 Int'l Des: 1996-052 Owner: UNAM Country: MX operational
LEOCIRCULARPOLAR

リアルタイム位置

3D地球を読み込み中...

MEXICO-OSCAR-30について

説明を読み込み中...

次回通過

Passes for default location (London). Set your location on the main map for personalized predictions.

高度履歴

Loading altitude history...

軌道要素

1 24305U 96052B 26106.11768305 .00000066 00000-0 53947-4 0 9996
2 24305 82.9338 126.1583 0031478 65.9741 294.4703 13.74078511484091
Epoch: Apr 16, 2026 • Age: 16 hours

現在のステータス

高度 975.1 km
速度 7.38 km/s
衛星直下点 74.72°N, 23.76°E
打ち上げ日 Sep 5, 1996
運用期間 29.6 years
タイプ other

技術仕様

分類 Payload
質量 11.00 kg
乾燥質量 11.00 kg
総質量 11.00 kg
長さ 0.30 m
直径 0.30 m
スパン 0.30 m
形状 Cube
製造者 UNAM
バスタイプ Microsat
フェーズステータス Unknown Transfer Status
所有者/国 UNAM/MX

Most Searched